{"data":{"norad_id":68369,"intl_designator":"2026-061K","name":"RASSVET-3 10","alt_names":[],"object_type":"PAYLOAD","status":"ACTIVE","operator":null,"country":"CIS","launch_date":"2026-03-23","launch_site_code":"PLMSC","launch_vehicle":null,"mission":null,"orbit_class":"UNKNOWN","rcs_meters":null,"size_class":null,"mass_kg":null,"dimensions":null,"purposes":[],"wikipedia_slug":null,"has_3d_model":false,"image_url":null,"decayed_at":null,"tle_current":{"epoch":"2026-09-20T03:03:40.739040Z","epoch_age_seconds":104437,"freshness":"FRESH","line1":"1 68369U 26061K   26263.12755485  .00001553  00000+0  72969-4 0  9993","line2":"2 68369  82.2823 269.6121 0004314 118.6043 241.5626 15.18895155 28331","mean_motion":15.18895155,"eccentricity":0.0004314,"inclination_deg":82.2823,"raan_deg":269.6121,"arg_perigee_deg":118.6043,"mean_anomaly_deg":241.5626,"bstar":7.2969e-5,"rev_number":2833,"period_min":94.805753725641,"perigee_km":506.20729348186,"apogee_km":512.1496692792,"semimajor_km":6887.3154813805,"source":"CELESTRAK","updated_at":"2026-09-20T09:00:24.164203Z"}}}